Time,TemperatureF,DewpointF,PressureIn,WindDirection,WindDirectionDegrees,WindSpeedMPH,WindSpeedGustMPH,Humidity,HourlyPrecipIn,Conditions,Clouds,dailyrainin,SoftwareType,DateUTC
2013-07-03 00:00:00,69.6,52.2,29.98,East,81,0.0,0.0,54,0.00,,,0.00,Wunderground v.1.15,2013-07-03 06:00:00,
2013-07-03 00:05:00,69.6,52.2,29.98,East,82,0.0,0.0,54,0.00,,,0.00,Wunderground v.1.15,2013-07-03 06:05:00,
2013-07-03 00:15:00,69.5,52.1,29.98,NE,39,0.0,3.0,54,0.00,,,0.00,Wunderground v.1.15,2013-07-03 06:15:00,
2013-07-03 00:20:00,69.5,52.1,29.98,NE,39,0.0,0.0,54,0.00,,,0.00,Wunderground v.1.15,2013-07-03 06:20:00,
2013-07-03 00:25:00,69.4,53.0,29.98,NE,34,0.0,1.0,56,0.00,,,0.00,Wunderground v.1.15,2013-07-03 06:25:00,
2013-07-03 00:30:00,69.2,52.8,29.97,NE,34,0.0,1.0,56,0.00,,,0.00,Wunderground v.1.15,2013-07-03 06:30:00,
2013-07-03 00:35:00,69.0,53.1,29.97,NE,34,0.0,1.0,57,0.00,,,0.00,Wunderground v.1.15,2013-07-03 06:35:00,
2013-07-03 00:45:00,68.8,52.9,30.00,NE,34,0.0,0.0,57,0.00,,,0.00,Wunderground v.1.15,2013-07-03 06:45:00,
2013-07-03 01:00:00,67.9,55.7,29.95,NE,34,0.0,0.0,65,0.00,,,0.00,Wunderground v.1.15,2013-07-03 07:00:00,
2013-07-03 01:10:00,66.7,55.8,29.96,NE,34,0.0,0.0,68,0.00,,,0.00,Wunderground v.1.15,2013-07-03 07:10:00,
2013-07-03 01:15:00,66.2,55.3,29.97,NE,34,0.0,0.0,68,0.00,,,0.00,Wunderground v.1.15,2013-07-03 07:15:00,
2013-07-03 01:25:00,65.7,54.8,29.97,NE,34,0.0,0.0,68,0.00,,,0.00,Wunderground v.1.15,2013-07-03 07:25:00,
2013-07-03 01:35:00,65.6,55.5,29.99,NE,34,0.0,4.0,70,0.00,,,0.00,Wunderground v.1.15,2013-07-03 07:35:00,
2013-07-03 01:40:00,65.7,56.0,30.00,NE,34,0.0,0.0,71,0.00,,,0.00,Wunderground v.1.15,2013-07-03 07:40:00,
2013-07-03 01:45:00,65.7,55.2,30.01,ESE,109,0.0,9.0,69,0.00,,,0.00,Wunderground v.1.15,2013-07-03 07:45:00,
2013-07-03 01:50:00,63.4,50.1,30.00,ESE,117,4.0,4.0,62,0.00,,,0.00,Wunderground v.1.15,2013-07-03 07:50:00,
2013-07-03 01:55:00,61.0,50.0,30.00,ENE,65,5.0,5.0,67,0.00,,,0.00,Wunderground v.1.15,2013-07-03 07:55:00,
2013-07-03 02:00:00,59.8,50.0,30.00,ESE,109,3.0,3.0,70,0.00,,,0.00,Wunderground v.1.15,2013-07-03 08:00:00,
2013-07-03 02:05:00,59.1,49.7,29.99,ENE,73,2.0,3.0,71,0.00,,,0.00,Wunderground v.1.15,2013-07-03 08:05:00,
2013-07-03 02:10:00,59.0,50.0,29.99,ENE,73,1.0,1.0,72,0.00,,,0.00,Wunderground v.1.15,2013-07-03 08:10:00,
2013-07-03 02:15:00,59.3,50.3,29.99,ENE,74,1.0,2.0,72,0.00,,,0.00,Wunderground v.1.15,2013-07-03 08:15:00,
2013-07-03 02:20:00,59.6,50.6,29.99,East,96,1.0,1.0,72,0.00,,,0.00,Wunderground v.1.15,2013-07-03 08:20:00,
2013-07-03 02:25:00,59.9,50.5,29.99,East,96,0.0,1.0,71,0.00,,,0.00,Wunderground v.1.15,2013-07-03 08:25:00,
2013-07-03 02:35:00,60.2,50.8,29.99,East,96,0.0,0.0,71,0.00,,,0.00,Wunderground v.1.15,2013-07-03 08:35:00,
2013-07-03 02:45:00,60.5,51.0,29.98,East,96,0.0,0.0,71,0.00,,,0.00,Wunderground v.1.15,2013-07-03 08:45:00,
2013-07-03 03:00:00,60.9,51.4,29.97,East,96,0.0,0.0,71,0.00,,,0.00,Wunderground v.1.15,2013-07-03 09:00:00,
2013-07-03 03:05:00,61.0,51.5,29.96,East,96,0.0,0.0,71,0.00,,,0.00,Wunderground v.1.15,2013-07-03 09:05:00,
2013-07-03 03:10:00,61.1,52.0,29.97,East,96,0.0,0.0,72,0.00,,,0.00,Wunderground v.1.15,2013-07-03 09:10:00,
2013-07-03 03:15:00,61.2,52.1,29.97,East,96,0.0,0.0,72,0.00,,,0.00,Wunderground v.1.15,2013-07-03 09:15:00,
2013-07-03 03:20:00,61.2,52.1,29.96,East,96,0.0,0.0,72,0.00,,,0.00,Wunderground v.1.15,2013-07-03 09:20:00,
2013-07-03 03:25:00,61.3,52.2,29.97,East,96,0.0,0.0,72,0.00,,,0.00,Wunderground v.1.15,2013-07-03 09:25:00,
2013-07-03 03:40:00,61.6,52.9,29.97,East,96,0.0,0.0,73,0.00,,,0.00,Wunderground v.1.15,2013-07-03 09:40:00,
2013-07-03 03:45:00,61.8,53.1,29.97,East,96,0.0,0.0,73,0.00,,,0.00,Wunderground v.1.15,2013-07-03 09:45:00,
2013-07-03 03:55:00,62.1,53.3,29.97,East,96,0.0,0.0,73,0.00,,,0.00,Wunderground v.1.15,2013-07-03 09:55:00,
2013-07-03 04:00:00,62.2,53.4,29.96,East,96,0.0,0.0,73,0.00,,,0.00,Wunderground v.1.15,2013-07-03 10:00:00,
2013-07-03 04:05:00,62.3,53.5,29.96,East,96,0.0,0.0,73,0.00,,,0.00,Wunderground v.1.15,2013-07-03 10:05:00,
2013-07-03 04:15:00,62.5,53.0,29.95,East,96,0.0,0.0,71,0.00,,,0.00,Wunderground v.1.15,2013-07-03 10:15:00,
2013-07-03 04:20:00,62.6,52.7,29.95,East,96,0.0,0.0,70,0.00,,,0.00,Wunderground v.1.15,2013-07-03 10:20:00,
2013-07-03 04:25:00,62.7,52.8,29.95,East,88,1.0,2.0,70,0.00,,,0.00,Wunderground v.1.15,2013-07-03 10:25:00,
2013-07-03 04:35:00,62.7,53.2,29.96,East,88,1.0,2.0,71,0.00,,,0.00,Wunderground v.1.15,2013-07-03 10:35:00,
2013-07-03 04:45:00,62.6,53.1,29.95,East,88,0.0,0.0,71,0.00,,,0.00,Wunderground v.1.15,2013-07-03 10:45:00,
2013-07-03 04:50:00,62.5,52.6,29.95,East,88,0.0,0.0,70,0.00,,,0.00,Wunderground v.1.15,2013-07-03 10:50:00,
2013-07-03 04:55:00,62.5,52.2,29.95,East,88,0.0,0.0,69,0.00,,,0.00,Wunderground v.1.15,2013-07-03 10:55:00,
2013-07-03 05:05:00,62.5,52.6,29.94,East,88,0.0,0.0,70,0.00,,,0.00,Wunderground v.1.15,2013-07-03 11:05:00,
2013-07-03 05:10:00,62.5,52.6,29.94,East,88,0.0,0.0,70,0.00,,,0.00,Wunderground v.1.15,2013-07-03 11:10:00,
2013-07-03 05:15:00,62.4,52.5,29.95,East,88,0.0,0.0,70,0.00,,,0.00,Wunderground v.1.15,2013-07-03 11:15:00,
2013-07-03 05:20:00,62.3,52.4,29.95,East,88,0.0,0.0,70,0.00,,,0.00,Wunderground v.1.15,2013-07-03 11:20:00,
2013-07-03 05:25:00,62.1,52.2,29.95,East,88,0.0,0.0,70,0.00,,,0.00,Wunderground v.1.15,2013-07-03 11:25:00,
2013-07-03 05:30:00,61.8,51.9,29.95,East,88,0.0,3.0,70,0.00,,,0.00,Wunderground v.1.15,2013-07-03 11:30:00,
2013-07-03 05:40:00,61.6,52.1,29.96,East,88,0.0,0.0,71,0.00,,,0.00,Wunderground v.1.15,2013-07-03 11:40:00,
2013-07-03 05:45:00,61.5,51.6,29.96,East,88,0.0,0.0,70,0.00,,,0.00,Wunderground v.1.15,2013-07-03 11:45:00,
2013-07-03 05:55:00,61.3,51.4,29.96,East,88,0.0,0.0,70,0.00,,,0.00,Wunderground v.1.15,2013-07-03 11:55:00,
2013-07-03 06:00:00,61.3,51.4,29.96,East,88,0.0,0.0,70,0.00,,,0.00,Wunderground v.1.15,2013-07-03 12:00:00,
2013-07-03 06:10:00,61.3,51.4,29.97,East,88,0.0,0.0,70,0.00,,,0.00,Wunderground v.1.15,2013-07-03 12:10:00,
2013-07-03 06:15:00,61.3,51.4,29.96,East,88,0.0,0.0,70,0.00,,,0.00,Wunderground v.1.15,2013-07-03 12:15:00,
2013-07-03 06:25:00,61.4,51.9,29.97,East,88,0.0,0.0,71,0.00,,,0.00,Wunderground v.1.15,2013-07-03 12:25:00,
2013-07-03 06:30:00,61.4,51.9,29.97,East,88,0.0,2.0,71,0.00,,,0.00,Wunderground v.1.15,2013-07-03 12:30:00,
2013-07-03 06:35:00,61.5,52.0,29.97,East,88,0.0,2.0,71,0.00,,,0.00,Wunderground v.1.15,2013-07-03 12:35:00,
2013-07-03 06:40:00,61.7,52.2,29.98,East,88,0.0,1.0,71,0.00,,,0.00,Wunderground v.1.15,2013-07-03 12:40:00,
2013-07-03 06:45:00,62.1,52.2,29.98,East,89,0.0,1.0,70,0.00,,,0.00,Wunderground v.1.15,2013-07-03 12:45:00,
2013-07-03 06:50:00,62.3,52.0,29.98,ENE,76,0.0,1.0,69,0.00,,,0.00,Wunderground v.1.15,2013-07-03 12:50:00,
2013-07-03 06:55:00,62.5,52.2,29.98,ENE,76,0.0,1.0,69,0.00,,,0.00,Wunderground v.1.15,2013-07-03 12:55:00,
2013-07-03 07:00:00,62.5,52.6,29.97,ENE,76,0.0,2.0,70,0.00,,,0.00,Wunderground v.1.15,2013-07-03 13:00:00,
2013-07-03 07:05:00,62.6,53.4,29.97,ENE,76,0.0,2.0,72,0.00,,,0.00,Wunderground v.1.15,2013-07-03 13:05:00,
2013-07-03 07:10:00,62.5,53.7,29.96,ENE,76,0.0,0.0,73,0.00,,,0.00,Wunderground v.1.15,2013-07-03 13:10:00,
2013-07-03 07:20:00,62.5,54.5,29.96,East,80,0.0,0.0,75,0.00,,,0.00,Wunderground v.1.15,2013-07-03 13:20:00,
2013-07-03 07:25:00,62.9,54.5,29.96,East,89,0.0,0.0,74,0.00,,,0.01,Wunderground v.1.15,2013-07-03 13:25:00,
2013-07-03 07:30:00,63.3,54.1,29.96,East,89,0.0,0.0,72,0.00,,,0.01,Wunderground v.1.15,2013-07-03 13:30:00,
2013-07-03 07:35:00,63.4,53.4,29.97,East,89,0.0,0.0,70,0.00,,,0.01,Wunderground v.1.15,2013-07-03 13:35:00,
2013-07-03 07:40:00,63.5,53.9,29.96,East,89,0.0,0.0,71,0.00,,,0.01,Wunderground v.1.15,2013-07-03 13:40:00,
2013-07-03 07:45:00,63.6,53.6,29.96,East,89,0.0,0.0,70,0.00,,,0.01,Wunderground v.1.15,2013-07-03 13:45:00,
2013-07-03 07:55:00,63.9,53.1,29.97,East,89,0.0,0.0,68,0.00,,,0.01,Wunderground v.1.15,2013-07-03 13:55:00,
2013-07-03 08:15:00,64.8,52.8,29.97,East,89,0.0,0.0,65,0.00,,,0.01,Wunderground v.1.15,2013-07-03 14:15:00,
2013-07-03 08:20:00,65.1,52.2,29.96,East,89,0.0,0.0,63,0.00,,,0.01,Wunderground v.1.15,2013-07-03 14:20:00,
2013-07-03 08:25:00,65.4,52.0,29.97,East,89,0.0,0.0,62,0.00,,,0.01,Wunderground v.1.15,2013-07-03 14:25:00,
2013-07-03 08:30:00,65.7,52.3,29.96,East,89,0.0,0.0,62,0.00,,,0.01,Wunderground v.1.15,2013-07-03 14:30:00,
2013-07-03 08:35:00,65.9,52.1,29.97,East,89,0.0,0.0,61,0.00,,,0.01,Wunderground v.1.15,2013-07-03 14:35:00,
2013-07-03 08:40:00,66.3,51.5,29.97,East,89,0.0,0.0,59,0.00,,,0.01,Wunderground v.1.15,2013-07-03 14:40:00,
2013-07-03 08:45:00,66.6,51.4,29.97,East,89,0.0,0.0,58,0.00,,,0.01,Wunderground v.1.15,2013-07-03 14:45:00,
2013-07-03 08:50:00,67.1,52.3,29.97,East,89,0.0,0.0,59,0.00,,,0.01,Wunderground v.1.15,2013-07-03 14:50:00,
2013-07-03 08:55:00,67.7,52.9,29.96,East,89,0.0,0.0,59,0.00,,,0.01,Wunderground v.1.15,2013-07-03 14:55:00,
2013-07-03 09:00:00,67.9,52.6,29.96,East,89,0.0,0.0,58,0.00,,,0.01,Wunderground v.1.15,2013-07-03 15:00:00,
2013-07-03 09:05:00,68.1,52.8,29.96,East,89,0.0,0.0,58,0.00,,,0.01,Wunderground v.1.15,2013-07-03 15:05:00,
2013-07-03 09:10:00,68.0,53.1,29.96,East,89,0.0,0.0,59,0.00,,,0.01,Wunderground v.1.15,2013-07-03 15:10:00,
2013-07-03 09:20:00,68.5,53.1,29.95,East,89,0.0,0.0,58,0.00,,,0.01,Wunderground v.1.15,2013-07-03 15:20:00,
2013-07-03 09:25:00,68.7,53.3,29.95,East,89,0.0,0.0,58,0.00,,,0.01,Wunderground v.1.15,2013-07-03 15:25:00,
2013-07-03 09:30:00,69.1,53.2,29.95,East,95,0.0,0.0,57,0.00,,,0.01,Wunderground v.1.15,2013-07-03 15:30:00,
2013-07-03 09:35:00,69.4,53.5,29.95,East,94,0.0,0.0,57,0.00,,,0.01,Wunderground v.1.15,2013-07-03 15:35:00,
2013-07-03 09:40:00,69.7,52.8,29.94,East,94,0.0,1.0,55,0.00,,,0.01,Wunderground v.1.15,2013-07-03 15:40:00,
2013-07-03 09:50:00,70.2,51.7,29.94,East,94,0.0,0.0,52,0.00,,,0.01,Wunderground v.1.15,2013-07-03 15:50:00,
2013-07-03 09:55:00,70.5,51.5,29.93,East,94,0.0,0.0,51,0.00,,,0.01,Wunderground v.1.15,2013-07-03 15:55:00,
2013-07-03 10:00:00,70.7,51.1,29.93,East,94,0.0,0.0,50,0.00,,,0.01,Wunderground v.1.15,2013-07-03 16:00:00,
2013-07-03 10:05:00,71.0,51.4,29.93,East,94,0.0,0.0,50,0.00,,,0.01,Wunderground v.1.15,2013-07-03 16:05:00,
2013-07-03 10:10:00,71.0,51.4,29.93,East,94,0.0,0.0,50,0.00,,,0.01,Wunderground v.1.15,2013-07-03 16:10:00,
2013-07-03 10:15:00,71.3,51.7,29.93,East,94,0.0,0.0,50,0.00,,,0.01,Wunderground v.1.15,2013-07-03 16:15:00,
2013-07-03 10:30:00,72.1,51.9,29.92,East,95,0.0,1.0,49,0.00,,,0.01,Wunderground v.1.15,2013-07-03 16:30:00,
2013-07-03 10:35:00,72.6,51.8,29.92,East,95,0.0,1.0,48,0.00,,,0.01,Wunderground v.1.15,2013-07-03 16:35:00,
2013-07-03 10:40:00,73.2,51.2,29.92,East,94,0.0,0.0,46,0.00,,,0.01,Wunderground v.1.15,2013-07-03 16:40:00,
2013-07-03 10:45:00,73.6,52.1,29.92,East,94,0.0,0.0,47,0.00,,,0.01,Wunderground v.1.15,2013-07-03 16:45:00,
2013-07-03 10:50:00,74.0,51.9,29.92,ESE,102,0.0,0.0,46,0.00,,,0.01,Wunderground v.1.15,2013-07-03 16:50:00,
2013-07-03 10:55:00,74.3,51.6,29.92,East,97,0.0,1.0,45,0.00,,,0.01,Wunderground v.1.15,2013-07-03 16:55:00,
2013-07-03 11:00:00,74.7,51.3,29.92,East,98,0.0,0.0,44,0.00,,,0.01,Wunderground v.1.15,2013-07-03 17:00:00,
2013-07-03 11:05:00,74.9,50.9,29.92,East,95,0.0,2.0,43,0.00,,,0.01,Wunderground v.1.15,2013-07-03 17:05:00,
2013-07-03 11:10:00,75.1,50.4,29.92,East,95,0.0,1.0,42,0.00,,,0.01,Wunderground v.1.15,2013-07-03 17:10:00,
2013-07-03 11:15:00,75.5,51.4,29.91,ESE,102,1.0,1.0,43,0.00,,,0.01,Wunderground v.1.15,2013-07-03 17:15:00,
2013-07-03 11:30:00,76.2,50.8,29.91,ESE,106,0.0,2.0,41,0.00,,,0.01,Wunderground v.1.15,2013-07-03 17:30:00,
2013-07-03 11:35:00,76.4,50.3,29.91,ESE,103,1.0,2.0,40,0.00,,,0.01,Wunderground v.1.15,2013-07-03 17:35:00,
2013-07-03 11:40:00,76.9,50.7,29.90,ESE,102,1.0,1.0,40,0.00,,,0.01,Wunderground v.1.15,2013-07-03 17:40:00,
2013-07-03 11:50:00,77.4,49.8,29.90,ESE,105,1.0,1.0,38,0.00,,,0.01,Wunderground v.1.15,2013-07-03 17:50:00,
2013-07-03 11:55:00,78.0,50.3,29.90,East,85,1.0,4.0,38,0.00,,,0.01,Wunderground v.1.15,2013-07-03 17:55:00,
2013-07-03 12:00:00,78.6,50.1,29.89,East,87,0.0,0.0,37,0.00,,,0.01,Wunderground v.1.15,2013-07-03 18:00:00,
2013-07-03 12:10:00,79.7,49.6,29.89,East,88,0.0,1.0,35,0.00,,,0.01,Wunderground v.1.15,2013-07-03 18:10:00,
2013-07-03 12:15:00,79.3,50.0,29.89,East,98,1.0,1.0,36,0.00,,,0.01,Wunderground v.1.15,2013-07-03 18:15:00,
2013-07-03 12:20:00,79.4,50.1,29.89,SSW,213,1.0,1.0,36,0.00,,,0.01,Wunderground v.1.15,2013-07-03 18:20:00,
2013-07-03 12:30:00,79.3,50.8,29.88,South,180,0.0,2.0,37,0.00,,,0.01,Wunderground v.1.15,2013-07-03 18:30:00,
2013-07-03 12:35:00,79.6,51.0,29.88,SSW,207,0.0,2.0,37,0.00,,,0.01,Wunderground v.1.15,2013-07-03 18:35:00,
2013-07-03 12:40:00,80.0,49.9,29.88,SSW,207,0.0,1.0,35,0.00,,,0.01,Wunderground v.1.15,2013-07-03 18:40:00,
2013-07-03 12:45:00,80.2,50.8,29.88,SSW,209,0.0,1.0,36,0.00,,,0.01,Wunderground v.1.15,2013-07-03 18:45:00,
2013-07-03 12:50:00,80.3,50.9,29.88,SW,234,0.0,0.0,36,0.00,,,0.01,Wunderground v.1.15,2013-07-03 18:50:00,
2013-07-03 12:55:00,80.6,49.6,29.88,SW,234,0.0,0.0,34,0.00,,,0.01,Wunderground v.1.15,2013-07-03 18:55:00,
2013-07-03 13:05:00,81.7,50.6,29.87,ENE,72,0.0,1.0,34,0.00,,,0.01,Wunderground v.1.15,2013-07-03 19:05:00,
2013-07-03 13:10:00,81.8,49.9,29.86,ENE,71,0.0,0.0,33,0.00,,,0.01,Wunderground v.1.15,2013-07-03 19:10:00,
2013-07-03 13:20:00,82.5,50.5,29.86,NNE,31,1.0,1.0,33,0.00,,,0.01,Wunderground v.1.15,2013-07-03 19:20:00,
2013-07-03 13:35:00,82.5,49.7,29.85,ENE,76,0.0,2.0,32,0.00,,,0.01,Wunderground v.1.15,2013-07-03 19:35:00,
2013-07-03 13:40:00,82.7,49.8,29.85,ENE,76,0.0,0.0,32,0.00,,,0.01,Wunderground v.1.15,2013-07-03 19:40:00,
2013-07-03 13:45:00,82.6,49.7,29.85,ENE,76,0.0,0.0,32,0.00,,,0.01,Wunderground v.1.15,2013-07-03 19:45:00,
2013-07-03 13:50:00,82.7,49.8,29.85,ENE,76,0.0,0.0,32,0.00,,,0.01,Wunderground v.1.15,2013-07-03 19:50:00,
2013-07-03 13:55:00,82.6,49.7,29.84,ENE,78,0.0,0.0,32,0.00,,,0.01,Wunderground v.1.15,2013-07-03 19:55:00,
2013-07-03 14:05:00,82.3,49.5,29.85,ENE,68,0.0,1.0,32,0.00,,,0.01,Wunderground v.1.15,2013-07-03 20:05:00,
2013-07-03 14:10:00,82.5,49.7,29.84,NE,45,0.0,2.0,32,0.00,,,0.01,Wunderground v.1.15,2013-07-03 20:10:00,
2013-07-03 14:15:00,82.2,50.2,29.84,NE,45,0.0,2.0,33,0.00,,,0.01,Wunderground v.1.15,2013-07-03 20:15:00,
2013-07-03 14:25:00,81.9,50.0,29.84,NE,42,0.0,2.0,33,0.00,,,0.01,Wunderground v.1.15,2013-07-03 20:25:00,
2013-07-03 14:35:00,82.1,49.3,29.83,NE,40,0.0,3.0,32,0.00,,,0.01,Wunderground v.1.15,2013-07-03 20:35:00,
2013-07-03 14:40:00,82.6,50.6,29.83,NE,40,0.0,0.0,33,0.00,,,0.01,Wunderground v.1.15,2013-07-03 20:40:00,
2013-07-03 14:45:00,83.0,50.1,29.83,East,83,1.0,1.0,32,0.00,,,0.01,Wunderground v.1.15,2013-07-03 20:45:00,
2013-07-03 14:55:00,84.3,50.4,29.82,East,83,0.0,1.0,31,0.00,,,0.01,Wunderground v.1.15,2013-07-03 20:55:00,
2013-07-03 15:00:00,84.9,50.0,29.82,East,82,0.0,1.0,30,0.00,,,0.01,Wunderground v.1.15,2013-07-03 21:00:00,
2013-07-03 15:05:00,84.9,49.1,29.81,East,90,1.0,1.0,29,0.00,,,0.01,Wunderground v.1.15,2013-07-03 21:05:00,
2013-07-03 15:10:00,85.0,50.1,29.81,East,90,1.0,1.0,30,0.00,,,0.01,Wunderground v.1.15,2013-07-03 21:10:00,
2013-07-03 15:15:00,85.4,50.4,29.80,East,96,0.0,1.0,30,0.00,,,0.01,Wunderground v.1.15,2013-07-03 21:15:00,
2013-07-03 15:20:00,85.6,49.7,29.80,East,96,1.0,1.0,29,0.00,,,0.01,Wunderground v.1.15,2013-07-03 21:20:00,
2013-07-03 15:25:00,85.9,49.0,29.79,East,96,1.0,2.0,28,0.00,,,0.01,Wunderground v.1.15,2013-07-03 21:25:00,
2013-07-03 15:30:00,85.9,49.0,29.78,East,96,1.0,1.0,28,0.00,,,0.01,Wunderground v.1.15,2013-07-03 21:30:00,
2013-07-03 15:35:00,86.0,49.1,29.78,East,90,1.0,3.0,28,0.00,,,0.01,Wunderground v.1.15,2013-07-03 21:35:00,
2013-07-03 15:40:00,86.4,49.4,29.78,East,90,1.0,1.0,28,0.00,,,0.01,Wunderground v.1.15,2013-07-03 21:40:00,
2013-07-03 15:50:00,87.2,49.1,29.78,East,88,0.0,0.0,27,0.00,,,0.01,Wunderground v.1.15,2013-07-03 21:50:00,
2013-07-03 15:55:00,87.6,50.5,29.78,East,80,0.0,0.0,28,0.00,,,0.01,Wunderground v.1.15,2013-07-03 21:55:00,
2013-07-03 16:00:00,87.9,49.7,29.77,East,79,0.0,1.0,27,0.00,,,0.01,Wunderground v.1.15,2013-07-03 22:00:00,
2013-07-03 16:10:00,88.1,47.9,29.76,ENE,61,1.0,1.0,25,0.00,,,0.01,Wunderground v.1.15,2013-07-03 22:10:00,
2013-07-03 16:15:00,88.5,48.2,29.76,ENE,61,0.0,1.0,25,0.00,,,0.01,Wunderground v.1.15,2013-07-03 22:15:00,
2013-07-03 16:20:00,88.8,47.4,29.75,ENE,61,0.0,0.0,24,0.00,,,0.01,Wunderground v.1.15,2013-07-03 22:20:00,
2013-07-03 16:25:00,88.9,47.4,29.76,NNE,33,0.0,0.0,24,0.00,,,0.01,Wunderground v.1.15,2013-07-03 22:25:00,
2013-07-03 16:40:00,88.8,49.5,29.75,NE,40,0.0,1.0,26,0.00,,,0.01,Wunderground v.1.15,2013-07-03 22:40:00,
2013-07-03 16:45:00,89.1,48.7,29.75,NE,40,0.0,1.0,25,0.00,,,0.01,Wunderground v.1.15,2013-07-03 22:45:00,
2013-07-03 16:50:00,89.0,47.5,29.74,ESE,105,1.0,2.0,24,0.00,,,0.01,Wunderground v.1.15,2013-07-03 22:50:00,
2013-07-03 16:55:00,88.6,48.3,29.74,ENE,70,2.0,2.0,25,0.00,,,0.01,Wunderground v.1.15,2013-07-03 22:55:00,
2013-07-03 17:00:00,88.8,47.4,29.74,ENE,70,1.0,1.0,24,0.00,,,0.01,Wunderground v.1.15,2013-07-03 23:00:00,
2013-07-03 17:05:00,88.8,47.4,29.74,ENE,70,0.0,1.0,24,0.00,,,0.01,Wunderground v.1.15,2013-07-03 23:05:00,
2013-07-03 17:10:00,89.0,47.5,29.74,ENE,70,0.0,0.0,24,0.00,,,0.01,Wunderground v.1.15,2013-07-03 23:10:00,
2013-07-03 17:15:00,89.3,47.8,29.74,ENE,71,0.0,0.0,24,0.00,,,0.01,Wunderground v.1.15,2013-07-03 23:15:00,
2013-07-03 17:20:00,89.7,47.0,29.74,East,82,1.0,1.0,23,0.00,,,0.01,Wunderground v.1.15,2013-07-03 23:20:00,
2013-07-03 17:25:00,89.6,48.0,29.74,East,82,1.0,1.0,24,0.00,,,0.01,Wunderground v.1.15,2013-07-03 23:25:00,
2013-07-03 17:30:00,89.6,48.0,29.74,East,82,0.0,3.0,24,0.00,,,0.01,Wunderground v.1.15,2013-07-03 23:30:00,
2013-07-03 17:35:00,89.4,46.7,29.73,NE,40,1.0,3.0,23,0.00,,,0.01,Wunderground v.1.15,2013-07-03 23:35:00,
2013-07-03 17:40:00,89.3,46.6,29.73,NE,40,1.0,1.0,23,0.00,,,0.01,Wunderground v.1.15,2013-07-03 23:40:00,
2013-07-03 17:50:00,89.6,44.5,29.72,NE,40,0.0,1.0,21,0.00,,,0.01,Wunderground v.1.15,2013-07-03 23:50:00,
2013-07-03 18:00:00,89.7,47.0,29.72,NE,40,0.0,0.0,23,0.00,,,0.01,Wunderground v.1.15,2013-07-04 00:00:00,
2013-07-03 18:05:00,89.4,46.7,29.72,NE,40,0.0,0.0,23,0.00,,,0.01,Wunderground v.1.15,2013-07-04 00:05:00,
2013-07-03 18:10:00,89.2,46.6,29.72,NE,40,0.0,0.0,23,0.00,,,0.01,Wunderground v.1.15,2013-07-04 00:10:00,
2013-07-03 18:15:00,89.4,46.7,29.72,NE,40,0.0,0.0,23,0.00,,,0.01,Wunderground v.1.15,2013-07-04 00:15:00,
2013-07-03 18:20:00,89.3,46.6,29.73,NE,40,0.0,0.0,23,0.00,,,0.01,Wunderground v.1.15,2013-07-04 00:20:00,
2013-07-03 18:25:00,89.3,46.6,29.73,NE,40,0.0,1.0,23,0.00,,,0.01,Wunderground v.1.15,2013-07-04 00:25:00,
2013-07-03 18:30:00,89.3,46.6,29.73,NE,40,0.0,1.0,23,0.00,,,0.01,Wunderground v.1.15,2013-07-04 00:30:00,
2013-07-03 18:35:00,89.2,46.6,29.73,NE,40,0.0,1.0,23,0.00,,,0.01,Wunderground v.1.15,2013-07-04 00:35:00,
2013-07-03 18:40:00,89.0,46.4,29.73,NE,56,0.0,3.0,23,0.00,,,0.01,Wunderground v.1.15,2013-07-04 00:40:00,
2013-07-03 18:45:00,87.5,42.8,29.73,East,88,2.0,3.0,21,0.00,,,0.01,Wunderground v.1.15,2013-07-04 00:45:00,
2013-07-03 18:50:00,85.8,43.7,29.73,ENE,74,4.0,4.0,23,0.00,,,0.01,Wunderground v.1.15,2013-07-04 00:50:00,
2013-07-03 18:55:00,84.4,43.7,29.73,ENE,74,4.0,4.0,24,0.00,,,0.01,Wunderground v.1.15,2013-07-04 00:55:00,
2013-07-03 19:00:00,83.4,42.8,29.73,East,92,4.0,4.0,24,0.00,,,0.01,Wunderground v.1.15,2013-07-04 01:00:00,
2013-07-03 19:05:00,82.9,43.5,29.73,East,88,3.0,5.0,25,0.00,,,0.01,Wunderground v.1.15,2013-07-04 01:05:00,
2013-07-03 19:10:00,82.4,43.0,29.73,ENE,69,3.0,3.0,25,0.00,,,0.01,Wunderground v.1.15,2013-07-04 01:10:00,
2013-07-03 19:15:00,82.1,43.8,29.74,ESE,115,2.0,3.0,26,0.00,,,0.01,Wunderground v.1.15,2013-07-04 01:15:00,
2013-07-03 19:20:00,81.8,43.6,29.74,East,98,2.0,3.0,26,0.00,,,0.01,Wunderground v.1.15,2013-07-04 01:20:00,
2013-07-03 19:30:00,81.4,43.2,29.74,ESE,103,2.0,3.0,26,0.00,,,0.01,Wunderground v.1.15,2013-07-04 01:30:00,
2013-07-03 19:35:00,81.3,43.1,29.75,ENE,74,2.0,3.0,26,0.00,,,0.01,Wunderground v.1.15,2013-07-04 01:35:00,
2013-07-03 19:40:00,81.3,43.1,29.75,East,86,2.0,2.0,26,0.00,,,0.01,Wunderground v.1.15,2013-07-04 01:40:00,
2013-07-03 19:45:00,81.2,43.0,29.75,ESE,114,1.0,3.0,26,0.00,,,0.01,Wunderground v.1.15,2013-07-04 01:45:00,
2013-07-03 19:55:00,81.2,44.0,29.75,East,82,2.0,3.0,27,0.00,,,0.01,Wunderground v.1.15,2013-07-04 01:55:00,
2013-07-03 20:00:00,81.1,43.0,29.75,ESE,104,2.0,6.0,26,0.00,,,0.01,Wunderground v.1.15,2013-07-04 02:00:00,
2013-07-03 20:05:00,81.1,43.0,29.75,East,79,2.0,6.0,26,0.00,,,0.01,Wunderground v.1.15,2013-07-04 02:05:00,
2013-07-03 20:15:00,81.0,43.9,29.75,East,94,2.0,2.0,27,0.00,,,0.01,Wunderground v.1.15,2013-07-04 02:15:00,
2013-07-03 20:20:00,81.0,43.9,29.76,East,101,2.0,3.0,27,0.00,,,0.01,Wunderground v.1.15,2013-07-04 02:20:00,
2013-07-03 20:25:00,81.0,44.8,29.78,East,101,1.0,3.0,28,0.00,,,0.01,Wunderground v.1.15,2013-07-04 02:25:00,
2013-07-03 20:35:00,80.6,44.5,29.81,ESE,115,5.0,5.0,28,0.00,,,0.01,Wunderground v.1.15,2013-07-04 02:35:00,
2013-07-03 20:40:00,79.6,52.5,29.82,East,94,6.0,6.0,39,0.00,,,0.01,Wunderground v.1.15,2013-07-04 02:40:00,
2013-07-03 20:45:00,76.1,53.2,29.80,East,88,4.0,6.0,45,1.05,,,0.03,Wunderground v.1.15,2013-07-04 02:45:00,
2013-07-03 20:50:00,72.9,55.8,29.77,SSW,202,3.0,3.0,55,0.20,,,0.05,Wunderground v.1.15,2013-07-04 02:50:00,
2013-07-03 21:05:00,68.8,52.5,29.76,ESE,114,0.0,1.0,56,0.00,,,0.05,Wunderground v.1.15,2013-07-04 03:05:00,
2013-07-03 21:10:00,68.6,53.2,29.76,ESE,114,0.0,0.0,58,0.00,,,0.05,Wunderground v.1.15,2013-07-04 03:10:00,
2013-07-03 21:15:00,68.3,52.5,29.76,ESE,114,0.0,0.0,57,0.00,,,0.05,Wunderground v.1.15,2013-07-04 03:15:00,
2013-07-03 21:20:00,68.0,52.7,29.77,ESE,114,0.0,0.0,58,0.00,,,0.05,Wunderground v.1.15,2013-07-04 03:20:00,
2013-07-03 21:25:00,68.0,54.0,29.77,ESE,114,0.0,0.0,61,0.00,,,0.05,Wunderground v.1.15,2013-07-04 03:25:00,
2013-07-03 21:30:00,68.2,53.8,29.78,ESE,112,0.0,6.0,60,0.00,,,0.05,Wunderground v.1.15,2013-07-04 03:30:00,
2013-07-03 21:35:00,68.4,52.1,29.79,ESE,112,0.0,6.0,56,0.00,,,0.05,Wunderground v.1.15,2013-07-04 03:35:00,
2013-07-03 21:45:00,68.8,54.3,29.79,ESE,112,0.0,0.0,60,0.00,,,0.05,Wunderground v.1.15,2013-07-04 03:45:00,
2013-07-03 21:55:00,69.0,54.1,29.80,ESE,112,0.0,0.0,59,0.00,,,0.05,Wunderground v.1.15,2013-07-04 03:55:00,
2013-07-03 22:00:00,68.9,53.5,29.80,ESE,112,0.0,0.0,58,0.00,,,0.05,Wunderground v.1.15,2013-07-04 04:00:00,
2013-07-03 22:05:00,68.8,52.5,29.81,ESE,112,0.0,0.0,56,0.00,,,0.05,Wunderground v.1.15,2013-07-04 04:05:00,
2013-07-03 22:10:00,68.7,51.9,29.82,ESE,112,0.0,0.0,55,0.00,,,0.05,Wunderground v.1.15,2013-07-04 04:10:00,
2013-07-03 22:20:00,68.8,52.0,29.83,West,273,0.0,5.0,55,0.00,,,0.05,Wunderground v.1.15,2013-07-04 04:20:00,
2013-07-03 22:25:00,69.4,53.0,29.82,West,273,0.0,5.0,56,0.00,,,0.05,Wunderground v.1.15,2013-07-04 04:25:00,
2013-07-03 22:35:00,69.6,52.7,29.82,West,273,0.0,2.0,55,0.00,,,0.05,Wunderground v.1.15,2013-07-04 04:35:00,
2013-07-03 22:40:00,69.8,51.9,29.82,West,273,0.0,0.0,53,0.00,,,0.05,Wunderground v.1.15,2013-07-04 04:40:00,
2013-07-03 22:45:00,70.0,52.1,29.83,West,273,0.0,0.0,53,0.00,,,0.05,Wunderground v.1.15,2013-07-04 04:45:00,
2013-07-03 22:55:00,69.9,52.5,29.83,West,273,0.0,0.0,54,0.00,,,0.05,Wunderground v.1.15,2013-07-04 04:55:00,
2013-07-03 23:00:00,69.9,52.0,29.83,West,273,0.0,0.0,53,0.00,,,0.05,Wunderground v.1.15,2013-07-04 05:00:00,
2013-07-03 23:05:00,69.8,52.4,29.83,West,273,0.0,0.0,54,0.00,,,0.05,Wunderground v.1.15,2013-07-04 05:05:00,
2013-07-03 23:15:00,69.9,53.0,29.84,West,273,0.0,0.0,55,0.00,,,0.05,Wunderground v.1.15,2013-07-04 05:15:00,
2013-07-03 23:20:00,69.9,53.5,29.84,West,273,0.0,0.0,56,0.00,,,0.05,Wunderground v.1.15,2013-07-04 05:20:00,
2013-07-03 23:30:00,69.7,52.8,29.83,West,273,0.0,1.0,55,0.00,,,0.05,Wunderground v.1.15,2013-07-04 05:30:00,
2013-07-03 23:35:00,69.7,53.8,29.82,West,273,0.0,1.0,57,0.00,,,0.05,Wunderground v.1.15,2013-07-04 05:35:00,
2013-07-03 23:40:00,69.5,53.1,29.82,West,273,0.0,0.0,56,0.00,,,0.05,Wunderground v.1.15,2013-07-04 05:40:00,
2013-07-03 23:45:00,69.5,52.6,29.82,West,273,0.0,0.0,55,0.00,,,0.05,Wunderground v.1.15,2013-07-04 05:45:00,
2013-07-03 23:50:00,69.5,52.6,29.83,West,273,0.0,0.0,55,0.00,,,0.05,Wunderground v.1.15,2013-07-04 05:50:00,
2013-07-03 23:55:00,69.8,52.9,29.84,West,273,0.0,0.0,55,0.00,,,0.05,Wunderground v.1.15,2013-07-04 05:55:00,